EW4573 Weather Reports


time (UTC)temp
F
wind
direction
speed
knots
gust
knots
rain 1hr
in
rain 24hr
in
rain mn
in
humidity
%
barometer
mb
20260510161803 80 73 0.0 4.3 0.00 0.00 0.00 44 1015.0
20260510160903 80 264 0.0 2.6 0.00 0.00 0.00 49 1015.0
20260510160003 79 296 0.0 1.7 0.00 0.00 0.00 50 1015.1
20260510155403 78 50 0.0 3.5 0.00 0.00 0.00 53 1015.1
20260510154503 77 39 0.9 3.5 0.00 0.00 0.00 53 1015.3
20260510153603 77 63 0.9 3.5 0.00 0.00 0.00 54 1015.4
20260510152703 77 45 0.9 4.3 0.00 0.00 0.00 55 1015.5
20260510151803 76 63 0.9 4.3 0.00 0.00 0.00 59 1015.4
20260510150903 76 33 0.0 4.3 0.00 0.00 0.00 58 1015.2
20260510150003 75 38 0.0 2.6 0.00 0.00 0.00 58 1015.3
20260510145424 74 43 0.0 3.5 0.00 0.00 0.00 61 1015.2
20260510144503 73 63 0.9 6.1 0.00 0.00 0.00 63 1015.3
20260510143603 73 59 0.9 6.1 0.00 0.00 0.00 64 1015.2
20260510142703 72 31 0.0 2.6 0.00 0.00 0.00 68 1015.2
20260510141824 72 41 0.9 3.5 0.00 0.00 0.00 71 1015.2
20260510140903 71 45 1.7 4.3 0.00 0.00 0.00 73 1015.2
20260510140003 70 45 0.9 4.3 0.00 0.00 0.00 74 1015.3
20260510135403 69 9 0.0 2.6 0.00 0.00 0.00 78 1015.2
20260510134503 68 72 0.0 1.7 0.00 0.00 0.00 79 1015.3
20260510133603 68 47 0.0 2.6 0.00 0.00 0.00 81 1015.2
20260510132703 68 41 0.9 3.5 0.00 0.00 0.00 83 1015.2
20260510131803 67 230 0.0 1.7 0.00 0.00 0.00 87 1015.1
20260510130924 66 251 0.0 3.5 0.00 0.00 0.00 87 1015.0
20260510130003 66 239 0.0 0.9 0.00 0.00 0.00 89 1014.9
20260510125403 65 266 0.0 0.9 0.00 0.00 0.00 89 1014.7
20260510124503 65 15 0.0 2.6 0.00 0.00 0.00 91 1014.7
20260510123603 64 266 0.0 1.7 0.00 0.00 0.00 92 1014.8
20260510122704 64 286 0.0 1.7 0.00 0.00 0.00 92 1014.7
20260510121803 63 248 0.0 0.9 0.00 0.00 0.00 92 1014.5
20260510120903 63 256 0.0 3.5 0.00 0.00 0.00 92 1014.5
20260510120003 63 262 0.0 1.7 0.00 0.00 0.00 93 1014.4
20260510115403 63 255 0.0 2.6 0.00 0.00 0.00 93 1014.3
20260510114503 63 254 0.0 0.9 0.00 0.00 0.00 94 1014.4
20260510113603 62 251 0.0 0.9 0.00 0.00 0.00 95 1014.2
20260510112703 62 246 0.0 0.9 0.00 0.00 0.00 95 1013.9
20260510111803 61 0 0.0 0.0 0.00 0.00 0.00 95 1013.7
20260510110924 61 0 0.0 0.0 0.00 0.00 0.00 95 1013.6
20260510110003 61 0 0.0 0.0 0.00 0.00 0.00 95 1013.6
20260510105403 61 0 0.0 0.0 0.00 0.00 0.00 95 1013.5
20260510104503 61 0 0.0 0.0 0.00 0.00 0.00 95 1013.3
20260510103603 61 0 0.0 0.0 0.00 0.00 0.00 95 1013.2
20260510102703 61 0 0.0 0.0 0.00 0.00 0.00 94 1013.2
20260510101803 61 0 0.0 0.0 0.00 0.00 0.00 95 1013.0
20260510100924 61 0 0.0 0.0 0.00 0.00 0.00 94 1012.8
20260510100003 61 0 0.0 0.0 0.00 0.00 0.00 94 1012.7
20260510095424 61 0 0.0 0.0 0.00 0.00 0.00 94 1012.7
20260510094524 61 0 0.0 0.0 0.00 0.00 0.00 94 1012.7
20260510093624 61 0 0.0 0.0 0.00 0.00 0.00 94 1012.6
20260510092703 61 0 0.0 0.0 0.00 0.00 0.00 94 1012.3
20260510091824 61 0 0.0 0.0 0.00 0.00 0.00 94 1012.3
20260510090903 61 0 0.0 0.0 0.00 0.00 0.00 93 1012.1
20260510090003 62 0 0.0 0.0 0.00 0.00 0.00 93 1012.0
20260510085424 62 0 0.0 0.0 0.00 0.00 0.00 93 1011.9
20260510084503 62 0 0.0 0.0 0.00 0.00 0.00 93 1011.9
20260510083603 62 0 0.0 0.0 0.00 0.00 0.00 93 1011.9
20260510082703 62 263 0.0 0.9 0.00 0.00 0.00 93 1012.0
20260510081803 62 0 0.0 0.0 0.00 0.00 0.00 93 1011.8
20260510080903 62 0 0.0 0.0 0.00 0.00 0.00 93 1011.8
20260510080003 62 263 0.0 0.9 0.00 0.00 0.00 93 1011.8
20260510075403 62 0 0.0 0.0 0.00 0.00 0.00 93 1011.8
20260510074503 62 0 0.0 0.0 0.00 0.00 0.00 93 1011.8
20260510073624 62 0 0.0 0.0 0.00 0.00 0.00 93 1011.7
20260510072703 62 0 0.0 0.0 0.00 0.00 0.00 93 1011.7
20260510071824 62 0 0.0 0.0 0.00 0.00 0.00 92 1011.5
20260510070903 62 265 0.0 0.9 0.00 0.00 0.00 92 1011.5
20260510070003 62 0 0.0 0.0 0.00 0.00 0.00 92 1011.5
20260510065403 62 0 0.0 0.0 0.00 0.00 0.00 92 1011.7
20260510064524 62 271 0.0 0.9 0.00 0.00 0.00 92 1011.6
20260510063624 62 0 0.0 0.0 0.00 0.00 0.00 92 1011.7
20260510062703 63 0 0.0 0.0 0.00 0.00 0.00 91 1011.6
20260510061803 63 0 0.0 0.0 0.00 0.00 0.00 92 1011.6
20260510060924 63 0 0.0 0.0 0.00 0.00 0.00 91 1011.6
20260510060024 63 0 0.0 0.0 0.00 0.00 0.00 92 1011.7
20260510055403 63 0 0.0 0.0 0.00 0.00 0.00 92 1011.8
20260510054503 63 0 0.0 0.0 0.00 0.00 0.00 92 1011.9
20260510053603 63 0 0.0 0.0 0.00 0.00 0.00 92 1011.9
20260510052703 63 0 0.0 0.0 0.00 0.00 0.00 93 1011.9
20260510051803 63 279 0.0 0.9 0.00 0.00 0.00 93 1012.0
20260510050903 63 0 0.0 0.0 0.00 0.00 0.00 93 1012.2
20260510050024 63 0 0.0 0.0 0.00 0.00 0.00 93 1012.1
20260510045403 63 257 0.0 0.9 0.00 0.00 0.00 93 1012.1
20260510044503 63 0 0.0 0.0 0.00 0.00 0.00 93 1012.3
20260510043603 63 0 0.0 0.0 0.00 0.00 0.00 93 1012.3
20260510042703 63 0 0.0 0.0 0.00 0.00 0.00 93 1012.3
20260510041803 63 0 0.0 0.0 0.00 0.00 0.00 93 1012.2
20260510040924 63 229 0.0 1.7 0.00 0.00 0.00 94 1012.2
20260510040003 63 0 0.0 0.0 0.00 0.00 0.00 93 1012.3
20260510035403 63 0 0.0 0.0 0.00 0.00 0.00 93 1012.2
20260510034503 63 0 0.0 0.0 0.00 0.00 0.00 94 1012.0
20260510033603 63 0 0.0 0.0 0.00 0.00 0.00 93 1012.0
20260510032703 63 0 0.0 0.0 0.00 0.00 0.00 94 1012.0
20260510031803 63 0 0.0 0.0 0.00 0.00 0.00 94 1012.0
20260510030903 63 0 0.0 0.0 0.00 0.00 0.00 93 1011.9
20260510030003 63 0 0.0 0.0 0.00 0.00 0.00 94 1011.9
20260510025424 62 0 0.0 0.0 0.00 0.00 0.00 94 1011.8
20260510024503 62 0 0.0 0.0 0.00 0.00 0.00 94 1012.0
20260510023603 62 0 0.0 0.0 0.00 0.00 0.00 93 1011.7
20260510022703 62 0 0.0 0.0 0.00 0.00 0.00 93 1011.7
20260510021803 63 0 0.0 0.0 0.00 0.00 0.00 93 1011.8
20260510020903 63 0 0.0 0.0 0.00 0.00 0.00 92 1011.7
20260510020003 63 0 0.0 0.0 0.00 0.00 0.00 92 1011.5
20260510015424 63 0 0.0 0.0 0.00 0.00 0.00 92 1011.6
20260510014503 63 0 0.0 0.0 0.00 0.00 0.00 92 1011.6
20260510013624 63 0 0.0 0.0 0.00 0.00 0.00 91 1011.4
20260510012703 64 0 0.0 0.0 0.00 0.00 0.00 91 1011.0
20260510011803 64 0 0.0 0.0 0.00 0.00 0.00 89 1010.9
20260510010903 64 0 0.0 0.0 0.00 0.00 0.00 89 1010.9
20260510010024 64 0 0.0 0.0 0.00 0.00 0.00 89 1010.8
20260510005403 65 0 0.0 0.0 0.00 0.00 0.00 88 1010.8
20260510004503 66 0 0.0 0.0 0.00 0.00 0.00 88 1010.6
20260510003624 66 0 0.0 0.0 0.00 0.00 0.00 87 1010.6
20260510002703 66 0 0.0 0.0 0.00 0.00 0.00 86 1010.5
20260510001803 67 0 0.0 0.0 0.00 0.00 0.00 85 1010.6
20260510000903 68 0 0.0 0.0 0.00 0.00 0.00 83 1010.7
20260510000003 68 0 0.0 0.0 0.00 0.00 0.00 81 1010.6
20260509235424 69 0 0.0 0.0 0.00 0.00 0.00 80 1010.6
20260509234524 70 0 0.0 0.0 0.00 0.00 0.00 79 1010.5
20260509233603 70 0 0.0 0.0 0.00 0.00 0.00 77 1010.4
20260509232703 71 0 0.0 0.0 0.00 0.00 0.00 76 1010.2
20260509231824 72 292 0.0 1.7 0.00 0.00 0.00 75 1009.9
20260509230903 72 214 0.0 0.9 0.00 0.00 0.00 74 1010.1
20260509230003 72 156 0.0 0.9 0.00 0.00 0.00 73 1009.8
20260509225403 73 257 0.0 2.6 0.00 0.00 0.00 72 1009.9
20260509224503 73 0 0.0 0.0 0.00 0.00 0.00 71 1009.6
20260509223603 72 167 0.0 1.7 0.00 0.00 0.00 73 1009.7
20260509222724 72 178 0.0 0.9 0.00 0.00 0.00 72 1009.9
20260509221803 72 161 0.0 0.9 0.00 0.00 0.00 72 1009.8
20260509220924 73 258 0.0 1.7 0.00 0.00 0.00 72 1010.0
20260509220003 73 199 0.0 1.7 0.00 0.00 0.00 71 1010.0
20260509215403 73 165 0.0 1.7 0.00 0.00 0.00 70 1009.9
20260509214503 73 232 0.0 2.6 0.00 0.00 0.00 69 1010.0
20260509213603 74 170 0.9 4.3 0.00 0.00 0.00 69 1009.8
20260509212703 74 177 0.0 2.6 0.00 0.00 0.00 70 1009.8
20260509211824 73 257 0.0 1.7 0.00 0.00 0.00 70 1009.8
20260509210903 73 165 0.0 1.7 0.00 0.00 0.00 70 1009.7
20260509210024 73 211 0.9 3.5 0.00 0.00 0.00 69 1009.8
20260509205403 74 245 0.9 4.3 0.00 0.00 0.00 68 1009.7
20260509204503 73 164 0.9 3.5 0.00 0.00 0.00 70 1009.5
20260509203603 72 243 0.9 4.3 0.00 0.00 0.00 71 1009.8
20260509202724 72 255 0.0 4.3 0.00 0.00 0.00 73 1009.6
20260509201803 71 156 0.0 1.7 0.00 0.00 0.00 73 1009.7
20260509200903 71 177 0.0 1.7 0.00 0.00 0.00 72 1009.9
20260509200003 71 282 0.0 1.7 0.00 0.00 0.00 72 1009.9
20260509195403 72 265 0.0 1.7 0.00 0.00 0.00 71 1010.0
20260509194503 72 269 0.0 1.7 0.00 0.00 0.00 69 1010.1
20260509193603 72 190 0.0 0.9 0.00 0.00 0.00 71 1010.0
20260509192703 70 262 0.0 0.9 0.00 0.00 0.00 72 1010.4
20260509191803 71 281 0.0 0.9 0.00 0.00 0.00 71 1010.6
20260509190903 71 295 0.0 2.6 0.00 0.00 0.00 69 1010.6
20260509190003 71 265 0.0 2.6 0.00 0.00 0.00 69 1010.4
20260509185403 71 156 0.9 3.5 0.00 0.00 0.00 71 1010.4
20260509184524 70 169 0.9 3.5 0.00 0.00 0.00 70 1010.6
20260509183603 71 169 0.0 2.6 0.00 0.00 0.00 69 1010.6
20260509182724 71 179 0.0 2.6 0.00 0.00 0.00 68 1010.5
20260509181803 72 175 0.9 5.2 0.00 0.00 0.00 65 1010.7
20260509180903 73 166 1.7 5.2 0.00 0.00 0.00 64 1010.9
20260509180003 73 185 0.9 5.2 0.00 0.00 0.00 62 1011.1
20260509175403 73 164 1.7 6.1 0.00 0.00 0.00 63 1011.2
20260509174503 73 163 0.9 6.1 0.00 0.00 0.00 62 1011.2
20260509173603 72 172 0.9 6.1 0.00 0.00 0.00 61 1011.3
20260509172703 72 172 0.9 3.5 0.00 0.00 0.00 61 1011.4
20260509171803 72 188 0.0 1.7 0.00 0.00 0.00 60 1011.5
20260509170903 72 168 0.9 2.6 0.00 0.00 0.00 59 1011.5
20260509170024 72 161 0.9 3.5 0.00 0.00 0.00 59 1011.4
20260509165403 72 170 1.7 5.2 0.00 0.00 0.00 59 1011.7
20260509164503 72 221 0.9 5.2 0.00 0.00 0.00 57 1011.8
20260509163603 72 177 0.9 5.2 0.00 0.00 0.00 58 1011.9
20260509162724 71 165 1.7 7.0 0.00 0.00 0.00 61 1011.9